Weather History for Phoenix Deer Valley, AZ

Change the Weather History Date:

Monday, September 30, 2013

  Actual Average Record
Temperature  
Mean Temperature 76 °F -  
Max Temperature 90 °F 91 °F 102 °F (1997)
Min Temperature 63 °F 69 °F 61 °F (2014)
Cooling Degree Days 12    
Growing Degree Days 26 (Base 50)    
Moisture  
Dew Point 35 °F    
Average Humidity 23    
Maximum Humidity 37    
Minimum Humidity 13    
Precipitation  
Precipitation 0.00 in - - ()
Sea Level Pressure  
Sea Level Pressure 29.85 in    
Wind  
Wind Speed 4 mph (WSW)    
Max Wind Speed 9 mph    
Max Gust Speed -    
Visibility 10 miles    
Events      
Averages and records for this station are not official NWS values.
T = Trace of Precipitation, MM = Missing Value Source: NWS Daily Summary

Daily Weather History Graph

Daily Weather History Graph

Search for Another Location

Airport:

Trip Planner

Search our weather history database for the weather conditions in past years. The results will help you decide how hot, cold, wet, or windy it might be!

Date:

Astronomy

Sep. 30, 2013 Rise Set
Actual Time 6:22 AM MST 6:13 PM MST
Civil Twilight 5:57 AM MST 6:38 PM MST
Nautical Twilight 5:28 AM MST 7:07 PM MST
Astronomical Twilight 4:59 AM MST 7:36 PM MST
Moon 2:13 AM MST (9/30) 3:37 PM MST (9/30)
Length of Visible Light 12h 41m
Length of Day
11h 51m
Waning Crescent, 18% of the Moon is Illuminated
Sep 30
Waning Crescent
Oct 4
New
Oct 11
First Quarter
Oct 18
Full
Oct 26
Last Quarter

Hourly Weather History & Observations

Time (MST) Temp. Dew Point Humidity Pressure Visibility Wind Dir Wind Speed Gust Speed Precip Events Conditions
12:53 AM 73.0 °F 36.0 °F 26% 29.88 in 10.0 mi NE 6.9 mph - N/A   Clear
1:53 AM 70.0 °F 36.0 °F 29% 29.89 in 10.0 mi Calm Calm - N/A   Clear
2:53 AM 66.9 °F 36.0 °F 32% 29.88 in 10.0 mi North 5.8 mph - N/A   Clear
3:53 AM 69.1 °F 34.0 °F 27% 29.88 in 10.0 mi NNE 4.6 mph - N/A   Clear
4:53 AM 63.0 °F 36.0 °F 37% 29.88 in 10.0 mi Calm Calm - N/A   Clear
5:53 AM 63.0 °F 36.0 °F 37% 29.89 in 10.0 mi Calm Calm - N/A   Clear
6:53 AM 64.9 °F 36.0 °F 34% 29.90 in 10.0 mi NE 3.5 mph - N/A   Clear
7:53 AM 71.1 °F 36.0 °F 28% 29.91 in 10.0 mi Calm Calm - N/A   Clear
8:53 AM 75.9 °F 37.0 °F 24% 29.92 in 10.0 mi Calm Calm - N/A   Clear
9:53 AM 80.1 °F 37.0 °F 21% 29.92 in 10.0 mi Calm Calm - N/A   Clear
10:53 AM 84.0 °F 37.9 °F 19% 29.90 in 10.0 mi South 6.9 mph - N/A   Clear
11:53 AM 86.0 °F 37.0 °F 18% 29.88 in 10.0 mi SW 5.8 mph - N/A   Clear
12:53 PM 89.1 °F 33.1 °F 14% 29.85 in 10.0 mi SW 5.8 mph - N/A   Clear
1:53 PM 89.1 °F 33.1 °F 14% 29.83 in 10.0 mi West 8.1 mph - N/A   Clear
2:53 PM 90.0 °F 32.0 °F 13% 29.81 in 10.0 mi West 9.2 mph - N/A   Clear
3:53 PM 90.0 °F 33.1 °F 13% 29.79 in 10.0 mi SW 4.6 mph - N/A   Clear
4:53 PM 89.1 °F 32.0 °F 13% 29.78 in 10.0 mi SW 8.1 mph - N/A   Clear
5:53 PM 87.1 °F 30.9 °F 13% 29.77 in 10.0 mi SW 6.9 mph - N/A   Clear
6:53 PM 84.0 °F 30.0 °F 14% 29.78 in 10.0 mi SW 4.6 mph - N/A   Clear
7:53 PM 81.0 °F 30.9 °F 16% 29.79 in 10.0 mi Calm Calm - N/A   Clear
8:53 PM 75.0 °F 36.0 °F 24% 29.80 in 10.0 mi Calm Calm - N/A   Clear
9:53 PM 73.0 °F 34.0 °F 24% 29.80 in 10.0 mi Calm Calm - N/A   Clear
10:53 PM 70.0 °F 35.1 °F 28% 29.81 in 10.0 mi Calm Calm - N/A   Clear
11:53 PM 69.1 °F 34.0 °F 27% 29.80 in 10.0 mi Calm Calm - N/A   Clear